FW4496 Weather Reports


Display with metric or nautical units.
time (UTC)temp
F
wind
direction
speed
MPH
gust
MPH
rain 1hr
in
rain 24hr
in
rain mn
in
humidity
%
barometer
mb
20210227095257 51 92 4.0 16.0 0.01 0.07 0.03 96 1019.0
20210227094752 51 229 4.0 10.0 0.01 0.07 0.03 96 1019.1
20210227094240 51 186 4.0 10.0 0.01 0.07 0.03 96 1019.3
20210227093735 50 186 3.0 10.0 0.01 0.07 0.03 96 1019.4
20210227093236 50 142 3.0 8.0 0.01 0.07 0.03 95 1019.4
20210227092947 50 186 4.0 16.0 0.01 0.07 0.03 96 1019.5
20210227092219 50 144 4.0 16.0 0.00 0.06 0.02 95 1019.6
20210227091720 50 184 5.0 14.0 0.00 0.06 0.02 95 1019.4
20210227091221 50 211 5.0 13.0 0.01 0.06 0.02 95 1019.4
20210227090722 50 163 5.0 14.0 0.01 0.06 0.02 95 1019.7
20210227090216 50 100 5.0 14.0 0.01 0.06 0.02 95 1019.9
20210227085722 50 165 6.0 15.0 0.01 0.06 0.02 95 1019.8
20210227085215 50 88 6.0 15.0 0.01 0.06 0.02 96 1019.9
20210227084712 49 188 5.0 15.0 0.01 0.06 0.02 96 1019.9
20210227084215 49 180 5.0 14.0 0.01 0.06 0.02 95 1020.1
20210227083713 49 144 4.0 14.0 0.01 0.06 0.02 95 1020.3
20210227083212 48 158 4.0 13.0 0.01 0.06 0.02 95 1020.5
20210227082933 48 118 6.0 17.0 0.01 0.06 0.02 95 1020.7
20210227082213 48 130 6.0 17.0 0.01 0.06 0.02 95 1020.5
20210227081712 48 120 6.0 16.0 0.01 0.06 0.02 94 1020.5
20210227081214 48 121 5.0 16.0 0.00 0.05 0.01 94 1020.6
20210227080705 48 150 5.0 14.0 0.00 0.05 0.01 93 1021.0
20210227080159 48 150 5.0 14.0 0.00 0.05 0.01 93 1021.3
20210227075654 48 153 5.0 10.0 0.00 0.05 0.01 93 1021.2
20210227075236 48 83 6.0 13.0 0.00 0.05 0.01 93 1021.3
20210227074643 48 139 5.0 14.0 0.00 0.05 0.01 93 1021.5
20210227074136 48 138 5.0 15.0 0.00 0.05 0.01 93 1021.3
20210227073646 48 129 5.0 15.0 0.00 0.05 0.01 93 1020.9
20210227073130 47 178 5.0 15.0 0.00 0.05 0.01 92 1021.0
20210227072718 47 244 4.0 14.0 0.00 0.05 0.01 92 1021.7
20210227072117 47 129 5.0 17.0 0.00 0.05 0.01 92 1021.8
20210227071605 47 101 6.0 17.0 0.00 0.05 0.01 92 1022.0
20210227071103 47 169 5.0 16.0 0.00 0.05 0.01 92 1021.9
20210227070554 47 111 6.0 13.0 0.00 0.05 0.01 91 1022.0
20210227070049 47 96 7.0 21.0 0.00 0.05 0.01 91 1021.9
20210227065549 47 96 8.0 21.0 0.00 0.05 0.01 91 1022.2
20210227065224 47 111 8.0 21.0 0.00 0.05 0.01 91 1022.2
20210227064530 47 80 6.0 16.0 0.00 0.05 0.01 91 1022.2
20210227064034 47 93 7.0 19.0 0.00 0.05 0.01 91 1022.2
20210227063524 47 132 6.0 19.0 0.00 0.05 0.01 91 1022.5
20210227063031 46 109 6.0 16.0 0.00 0.05 0.01 91 1022.8
20210227062551 46 159 7.0 22.0 0.01 0.05 0.01 91 1022.9
20210227062018 46 132 8.0 22.0 0.01 0.05 0.01 90 1022.9
20210227061459 46 105 8.0 17.0 0.01 0.05 0.01 90 1023.2
20210227060950 46 107 8.0 17.0 0.01 0.05 0.01 90 1023.3
20210227060446 46 111 8.0 16.0 0.01 0.05 0.01 90 1023.5
20210227055946 46 146 7.0 16.0 0.01 0.05 0.01 90 1023.6
20210227055446 46 128 8.0 16.0 0.01 0.05 0.01 90 1023.7
20210227054947 45 121 8.0 15.0 0.01 0.05 0.01 90 1023.9
20210227054448 45 131 8.0 14.0 0.01 0.05 0.01 90 1024.0
20210227053946 45 70 9.0 14.0 0.01 0.05 0.01 90 1024.1
20210227053445 45 99 9.0 17.0 0.02 0.05 0.01 90 1024.2
20210227052952 45 88 8.0 17.0 0.02 0.05 0.01 90 1024.2
20210227052449 45 100 9.0 18.0 0.01 0.04 0.00 90 1024.4
20210227051948 45 103 9.0 18.0 0.01 0.04 0.00 90 1024.4
20210227051448 45 101 9.0 15.0 0.01 0.04 0.00 90 1024.5
20210227050948 45 109 9.0 15.0 0.01 0.04 0.00 90 1024.6
20210227050454 45 92 10.0 17.0 0.01 0.04 0.00 90 1024.8
20210227045947 45 123 10.0 17.0 0.01 0.04 0.04 90 1024.8
20210227045447 45 114 9.0 17.0 0.01 0.04 0.04 89 1024.9
20210227045000 45 5 9.0 17.0 0.01 0.04 0.04 89 1025.1
20210227044443 44 90 9.0 17.0 0.01 0.04 0.04 89 1025.3
20210227043934 44 101 8.0 17.0 0.01 0.04 0.04 89 1025.7
20210227043438 44 98 8.0 17.0 0.00 0.03 0.03 88 1025.6
20210227042921 44 112 7.0 14.0 0.00 0.03 0.03 88 1025.5
20210227042425 44 57 7.0 17.0 0.00 0.03 0.03 87 1025.6
20210227041924 45 122 9.0 17.0 0.00 0.03 0.03 86 1025.5
20210227041419 45 117 11.0 21.0 0.00 0.03 0.03 85 1025.2
20210227040919 45 107 10.0 21.0 0.00 0.03 0.03 85 1025.5
20210227040417 45 83 9.0 18.0 0.00 0.03 0.03 84 1025.7
20210227035916 45 95 9.0 16.0 0.00 0.03 0.03 85 1025.8
20210227035416 45 130 10.0 19.0 0.00 0.03 0.03 85 1025.9
20210227034933 45 96 11.0 19.0 0.01 0.03 0.03 85 1025.8
20210227034414 45 109 11.0 18.0 0.01 0.03 0.03 85 1025.9
20210227033915 45 87 12.0 24.0 0.01 0.03 0.03 85 1026.0
20210227033413 45 92 11.0 24.0 0.01 0.03 0.03 86 1026.1
20210227032913 44 98 10.0 18.0 0.01 0.03 0.03 87 1026.1
20210227032419 44 96 11.0 23.0 0.01 0.03 0.03 87 1026.1
20210227031913 44 116 10.0 23.0 0.01 0.03 0.03 87 1026.2
20210227031411 44 98 10.0 18.0 0.01 0.03 0.03 88 1026.5
20210227030859 44 128 9.0 18.0 0.01 0.03 0.03 88 1026.6
20210227030354 44 94 9.0 18.0 0.01 0.03 0.03 88 1026.7
20210227025854 44 90 9.0 16.0 0.01 0.03 0.03 88 1026.7
20210227025342 44 111 10.0 19.0 0.00 0.02 0.02 88 1026.7
20210227024849 44 103 11.0 19.0 0.00 0.02 0.02 88 1026.7
20210227024331 44 98 10.0 17.0 0.00 0.02 0.02 89 1026.9
20210227023827 43 132 9.0 17.0 0.00 0.02 0.02 89 1027.0
20210227023319 43 120 9.0 17.0 0.01 0.02 0.02 89 1026.9
20210227022830 43 96 8.0 13.0 0.01 0.02 0.02 90 1027.0
20210227022306 43 117 8.0 13.0 0.01 0.02 0.02 90 1027.2
20210227021808 43 104 8.0 13.0 0.01 0.02 0.02 90 1027.2
20210227021254 43 108 7.0 13.0 0.01 0.02 0.02 90 1027.3
20210227020750 43 111 7.0 11.0 0.01 0.02 0.02 90 1027.4
20210227020242 43 102 7.0 11.0 0.01 0.02 0.02 90 1027.4
20210227015736 43 94 7.0 14.0 0.01 0.02 0.02 90 1027.5
20210227015324 43 110 7.0 13.0 0.01 0.02 0.02 91 1027.5
20210227014726 43 107 6.0 11.0 0.02 0.02 0.02 91 1027.5
20210227014220 43 89 7.0 11.0 0.02 0.02 0.02 90 1027.6
20210227013712 43 84 8.0 12.0 0.02 0.02 0.02 90 1027.5
20210227013207 43 84 8.0 12.0 0.01 0.01 0.01 90 1027.6
20210227012837 43 109 8.0 14.0 0.01 0.01 0.01 90 1027.7
20210227012159 43 97 8.0 14.0 0.01 0.01 0.01 89 1027.7
20210227011650 43 114 8.0 14.0 0.01 0.01 0.01 89 1027.8
20210227011142 43 92 8.0 14.0 0.01 0.01 0.01 88 1028.0
20210227010642 43 104 8.0 14.0 0.01 0.01 0.01 88 1028.1
20210227010149 43 117 8.0 15.0 0.01 0.01 0.01 88 1028.1
20210227005627 44 102 8.0 15.0 0.01 0.01 0.01 87 1028.1
20210227005335 44 95 8.0 14.0 0.01 0.01 0.01 87 1028.2
20210227004615 44 83 10.0 15.0 0.00 0.00 0.00 86 1028.2
20210227004108 44 76 10.0 15.0 0.00 0.00 0.00 86 1028.3
20210227003600 44 102 10.0 16.0 0.00 0.00 0.00 86 1028.3
20210227003056 44 98 10.0 18.0 0.00 0.00 0.00 85 1028.3
20210227002808 44 101 9.0 18.0 0.00 0.00 0.00 84 1028.3
20210227002043 44 98 7.0 15.0 0.00 0.00 0.00 83 1028.4
20210227001545 44 115 7.0 15.0 0.00 0.00 0.00 81 1028.5
20210227001047 45 96 8.0 16.0 0.00 0.00 0.00 80 1028.5
20210227000548 45 99 7.0 16.0 0.00 0.00 0.00 79 1028.4
20210227000041 45 105 7.0 12.0 0.00 0.00 0.00 77 1028.5
20210226235522 45 107 7.0 13.0 0.00 0.00 0.00 76 1028.3
20210226235028 45 99 7.0 13.0 0.00 0.00 0.00 76 1028.3
20210226234513 45 101 7.0 13.0 0.00 0.00 0.00 76 1028.4
20210226233955 45 78 8.0 13.0 0.00 0.00 0.00 76 1028.3
20210226233448 45 95 7.0 13.0 0.00 0.00 0.00 75 1028.3
20210226233050 45 96 7.0 14.0 0.00 0.00 0.00 75 1028.2
20210226232524 45 103 8.0 14.0 0.00 0.00 0.00 75 1028.3
20210226231930 45 85 8.0 16.0 0.00 0.00 0.00 75 1028.3
20210226231425 45 127 7.0 16.0 0.00 0.00 0.00 75 1028.2
20210226230918 45 91 7.0 18.0 0.00 0.00 0.00 75 1028.1
20210226230413 45 104 8.0 18.0 0.00 0.00 0.00 74 1028.1
20210226225913 45 119 7.0 14.0 0.00 0.00 0.00 74 1028.0
20210226225413 45 96 6.0 11.0 0.00 0.00 0.00 74 1028.2
20210226224914 45 97 6.0 14.0 0.00 0.00 0.00 75 1028.3
20210226224419 45 122 7.0 14.0 0.00 0.00 0.00 75 1028.2
20210226223915 45 110 7.0 16.0 0.00 0.00 0.00 75 1028.2
20210226223418 45 93 8.0 16.0 0.00 0.00 0.00 75 1028.0
20210226222947 45 92 9.0 14.0 0.00 0.00 0.00 75 1027.8
20210226222431 45 114 9.0 14.0 0.00 0.00 0.00 75 1027.7
20210226221923 45 91 10.0 16.0 0.00 0.00 0.00 75 1027.6
20210226221416 45 111 10.0 16.0 0.00 0.00 0.00 74 1027.5
20210226220916 45 116 10.0 18.0 0.00 0.00 0.00 74 1027.6
20210226220415 45 94 10.0 18.0 0.00 0.00 0.00 74 1027.4
20210226215915 45 111 10.0 16.0 0.00 0.00 0.00 75 1027.5
20210226215417 45 70 10.0 16.0 0.00 0.00 0.00 75 1027.5
20210226214913 45 103 9.0 15.0 0.00 0.00 0.00 75 1027.6
20210226214413 45 105 9.0 15.0 0.00 0.00 0.00 75 1027.6
20210226213913 45 90 9.0 14.0 0.00 0.00 0.00 75 1027.6
20210226213413 45 101 9.0 15.0 0.00 0.00 0.00 75 1027.8
20210226212926 45 108 9.0 15.0 0.00 0.00 0.00 75 1027.9
20210226212454 45 85 9.0 14.0 0.00 0.00 0.00 75 1027.9
20210226211915 45 82 8.0 14.0 0.00 0.00 0.00 75 1028.0
20210226211413 45 96 8.0 18.0 0.00 0.00 0.00 75 1027.9
20210226210911 45 94 9.0 18.0 0.00 0.00 0.00 75 1027.9
20210226210405 45 93 8.0 13.0 0.00 0.00 0.00 75 1027.9
20210226205907 45 88 9.0 16.0 0.00 0.00 0.00 75 1027.7
20210226205409 45 116 10.0 16.0 0.00 0.00 0.00 75 1027.7
20210226204905 45 78 9.0 16.0 0.00 0.00 0.00 75 1027.8
20210226204406 45 96 7.0 16.0 0.00 0.00 0.00 75 1028.0
20210226203906 45 103 7.0 13.0 0.00 0.00 0.00 75 1028.2
20210226203413 45 53 7.0 13.0 0.00 0.00 0.00 76 1028.2
20210226202922 44 142 8.0 14.0 0.00 0.00 0.00 76 1028.0
20210226202407 44 110 7.0 14.0 0.00 0.00 0.00 76 1028.0
20210226201902 44 83 7.0 15.0 0.00 0.00 0.00 76 1028.3
20210226201401 44 105 7.0 16.0 0.00 0.00 0.00 76 1028.1
20210226200905 44 109 7.0 16.0 0.00 0.00 0.00 76 1028.1
20210226200402 44 81 7.0 13.0 0.00 0.00 0.00 76 1028.2
20210226195904 44 110 7.0 13.0 0.00 0.00 0.00 76 1027.9
20210226195405 44 109 7.0 14.0 0.00 0.00 0.00 76 1027.7
20210226194904 44 113 8.0 14.0 0.00 0.00 0.00 75 1027.9
20210226194401 44 105 8.0 13.0 0.00 0.00 0.00 75 1027.9
20210226193901 44 88 8.0 14.0 0.00 0.00 0.00 76 1027.9
20210226193423 44 86 9.0 17.0 0.00 0.00 0.00 76 1027.9
20210226192850 44 110 10.0 17.0 0.00 0.00 0.00 76 1027.9
20210226192346 43 113 11.0 18.0 0.00 0.00 0.00 76 1027.9
20210226191841 43 88 10.0 18.0 0.00 0.00 0.00 76 1027.9
20210226191332 43 78 8.0 15.0 0.00 0.00 0.00 76 1027.9
20210226190829 44 86 9.0 16.0 0.00 0.00 0.00 76 1028.0
20210226190320 43 118 10.0 18.0 0.00 0.00 0.00 76 1027.8
20210226185819 43 109 10.0 18.0 0.00 0.00 0.00 75 1027.9
20210226185325 43 84 11.0 19.0 0.00 0.00 0.00 74 1028.0
20210226184856 43 117 10.0 19.0 0.00 0.00 0.00 73 1028.0
20210226184303 43 90 9.0 17.0 0.00 0.00 0.00 72 1028.1
20210226183752 43 122 10.0 18.0 0.00 0.00 0.00 71 1028.4
20210226183247 43 110 11.0 21.0 0.00 0.00 0.00 70 1028.3
20210226182856 43 88 10.0 21.0 0.00 0.00 0.00 68 1028.5
20210226182233 43 123 11.0 22.0 0.00 0.00 0.00 68 1028.4
20210226181725 43 141 13.0 22.0 0.00 0.00 0.00 67 1028.5
20210226181219 43 92 13.0 22.0 0.00 0.00 0.00 67 1028.5
20210226180718 44 111 11.0 18.0 0.00 0.00 0.00 67 1028.8
20210226180209 44 113 10.0 18.0 0.00 0.00 0.00 66 1028.9
20210226175703 44 109 10.0 17.0 0.00 0.00 0.00 65 1029.1
20210226175201 44 137 8.0 17.0 0.00 0.00 0.00 63 1029.1
20210226174653 44 107 9.0 15.0 0.00 0.00 0.00 64 1029.3
20210226174144 44 95 9.0 15.0 0.00 0.00 0.00 63 1029.3
20210226173639 45 109 9.0 15.0 0.00 0.00 0.00 63 1029.3
20210226173132 45 108 9.0 16.0 0.00 0.00 0.00 62 1029.4
20210226172848 45 109 8.0 16.0 0.00 0.00 0.00 61 1029.7
20210226172120 45 109 7.0 14.0 0.00 0.00 0.00 62 1029.8
20210226171616 45 88 8.0 14.0 0.00 0.00 0.00 63 1029.8
20210226171111 45 119 9.0 18.0 0.00 0.00 0.00 61 1029.8
20210226170602 45 90 9.0 18.0 0.00 0.00 0.00 60 1029.5
20210226170100 45 114 9.0 14.0 0.00 0.00 0.00 58 1029.6
20210226165552 45 86 9.0 14.0 0.00 0.00 0.00 56 1029.6
20210226165157 45 97 10.0 16.0 0.00 0.00 0.00 55 1029.6
20210226164543 45 106 11.0 18.0 0.00 0.00 0.00 55 1029.8
20210226164031 46 114 10.0 18.0 0.00 0.00 0.00 54 1029.9
20210226163529 46 118 10.0 17.0 0.00 0.00 0.00 53 1030.1
20210226163034 46 138 10.0 17.0 0.00 0.00 0.00 51 1030.1
20210226162549 47 103 8.0 17.0 0.00 0.00 0.00 51 1030.2
20210226162018 47 95 8.0 18.0 0.00 0.00 0.00 51 1030.1
20210226161516 47 92 8.0 18.0 0.00 0.00 0.00 50 1030.1
20210226161000 47 86 9.0 15.0 0.00 0.00 0.00 51 1029.9
20210226160453 47 105 9.0 15.0 0.00 0.00 0.00 49 1029.8
20210226155946 47 103 9.0 15.0 0.00 0.00 0.00 49 1029.9
20210226155439 48 83 8.0 15.0 0.00 0.00 0.00 50 1029.9
20210226154937 48 96 6.0 13.0 0.00 0.00 0.00 49 1029.9
20210226154426 48 119 7.0 17.0 0.00 0.00 0.00 52 1029.9
20210226153920 48 123 8.0 17.0 0.00 0.00 0.00 50 1030.0
20210226153413 48 88 7.0 11.0 0.00 0.00 0.00 51 1030.2
20210226152907 48 117 6.0 10.0 0.00 0.00 0.00 52 1030.3
20210226152408 48 112 6.0 10.0 0.00 0.00 0.00 53 1030.1
20210226151856 47 121 5.0 10.0 0.00 0.00 0.00 54 1030.1
20210226151352 47 115 5.0 9.0 0.00 0.00 0.00 54 1030.2
20210226150843 47 107 5.0 9.0 0.00 0.00 0.00 56 1030.1
20210226150339 47 84 5.0 9.0 0.00 0.00 0.00 57 1030.1
20210226145832 47 113 6.0 13.0 0.00 0.00 0.00 58 1030.0
20210226145344 46 86 5.0 13.0 0.00 0.00 0.00 58 1030.0
20210226144837 46 111 5.0 9.0 0.00 0.00 0.00 60 1030.1
20210226144316 46 115 4.0 8.0 0.00 0.00 0.00 62 1029.9
20210226143807 45 90 4.0 7.0 0.00 0.00 0.00 62 1029.9
20210226143302 45 100 5.0 8.0 0.00 0.00 0.00 65 1029.8
20210226142921 44 95 6.0 9.0 0.00 0.00 0.00 66 1029.9
20210226142249 44 82 7.0 10.0 0.00 0.00 0.00 66 1029.9
20210226141744 44 83 6.0 10.0 0.00 0.00 0.00 65 1029.8
20210226141238 44 101 6.0 10.0 0.00 0.00 0.00 68 1029.7
20210226140732 43 118 6.0 9.0 0.00 0.00 0.00 68 1029.8
20210226140226 43 94 6.0 9.0 0.00 0.00 0.00 69 1029.9
20210226135720 43 80 7.0 10.0 0.00 0.00 0.00 69 1029.8
20210226135316 42 84 6.0 10.0 0.00 0.00 0.00 69 1029.8
20210226134710 42 84 6.0 8.0 0.00 0.00 0.00 70 1029.8
20210226134202 42 105 5.0 8.0 0.00 0.00 0.00 71 1029.8
20210226133655 42 96 5.0 7.0 0.00 0.00 0.00 74 1029.8
20210226133149 42 80 5.0 7.0 0.00 0.00 0.00 76 1029.8
20210226132710 42 67 4.0 7.0 0.00 0.00 0.00 76 1029.9
20210226132137 42 78 3.0 7.0 0.00 0.00 0.00 74 1029.9
20210226131634 42 55 3.0 6.0 0.00 0.00 0.00 71 1029.9
20210226131127 42 88 3.0 7.0 0.00 0.00 0.00 72 1029.6
20210226130620 42 90 3.0 7.0 0.00 0.00 0.00 71 1029.6
20210226130117 42 101 3.0 5.0 0.00 0.00 0.00 74 1029.5
20210226125622 42 96 3.0 5.0 0.00 0.00 0.00 74 1029.4
20210226125400 42 36 2.0 5.0 0.00 0.00 0.00 76 1029.4
20210226124628 42 55 1.0 3.0 0.00 0.00 0.00 76 1029.2
20210226124114 41 44 2.0 5.0 0.00 0.00 0.00 74 1029.2
20210226123612 41 93 3.0 5.0 0.00 0.00 0.00 72 1029.0
20210226123114 41 88 1.0 5.0 0.00 0.00 0.00 73 1028.8
20210226122720 41 105 0.0 3.0 0.00 0.00 0.00 75 1028.7
20210226122113 41 113 0.0 2.0 0.00 0.00 0.00 73 1028.6
20210226121613 41 113 0.0 2.0 0.00 0.00 0.00 73 1028.4
20210226121133 41 113 1.0 3.0 0.00 0.00 0.00 73 1028.3
20210226120621 41 113 1.0 3.0 0.00 0.00 0.00 74 1028.2
20210226120104 41 100 2.0 5.0 0.00 0.00 0.00 75 1028.1
20210226115605 41 100 3.0 5.0 0.00 0.00 0.00 76 1027.8
20210226115349 41 100 3.0 6.0 0.00 0.00 0.00 76 1027.7
20210226114606 41 107 3.0 6.0 0.00 0.00 0.00 76 1027.6
20210226114103 40 106 2.0 5.0 0.00 0.00 0.00 78 1027.5
20210226113603 40 98 2.0 3.0 0.00 0.00 0.00 79 1027.7
20210226113101 40 98 2.0 2.0 0.00 0.00 0.00 79 1027.7
20210226112826 40 98 1.0 3.0 0.00 0.00 0.00 80 1027.8
20210226112104 40 98 1.0 3.0 0.00 0.00 0.00 81 1027.7
20210226111602 40 98 2.0 5.0 0.00 0.00 0.00 82 1027.5
20210226111105 40 98 3.0 6.0 0.00 0.00 0.00 82 1027.2
20210226110608 40 98 4.0 6.0 0.00 0.00 0.00 83 1027.1
20210226110112 40 101 3.0 6.0 0.00 0.00 0.00 84 1027.1
20210226105601 40 81 4.0 7.0 0.00 0.00 0.00 86 1027.0
20210226105058 40 80 3.0 7.0 0.00 0.00 0.00 86 1027.0
20210226104559 40 71 2.0 4.0 0.00 0.00 0.00 87 1026.8
20210226104105 40 77 3.0 4.0 0.00 0.00 0.00 87 1026.8
20210226103558 40 77 2.0 3.0 0.00 0.00 0.00 87 1026.9
20210226103117 40 77 1.0 3.0 0.00 0.00 0.00 88 1026.8
20210226102915 40 77 0.0 1.0 0.00 0.00 0.00 89 1026.7
20210226102104 40 77 1.0 3.0 0.00 0.00 0.00 89 1026.8
20210226101600 39 77 2.0 3.0 0.00 0.00 0.00 89 1026.5
20210226101109 39 77 2.0 3.0 0.00 0.00 0.00 89 1026.4
20210226100600 39 77 2.0 3.0 0.00 0.00 0.00 89 1026.4
20210226100125 39 77 2.0 3.0 0.00 0.00 0.00 88 1026.4
20210226095558 39 77 2.0 3.0 0.00 0.00 0.00 88 1026.2